C/2014 N2 ( PanSTARRS )

Japanese version
Home page
Updated on July 20, 2015

---------------------------------------------------------------------

* Profile

Discovery Date July 2, 2014
Magnitude 19.6 mag
Discoverer Pan-STARRS 1 telescope (Haleakala)

* Pictures

* Orbital Elements

Epoch 2014 Sept. 20.0 TT = JDT 2456920.5
T 2014 Oct. 8.22621 TT                                  MPCW
q   2.1844083            (2000.0)            P               Q
z  +0.0002232      Peri.  237.85980     +0.08820833     -0.89764537
 +/-0.0000040      Node   143.80447     -0.46964456     +0.34480685
e   0.9995124      Incl.  133.01346     -0.87843798     -0.27448319
From 47 observations 2014 July 2-2015 Mar. 12, mean residual 0".4.

* Magnitudes Graph

        m1 = 13.5 + 5 log d + 10.0 log r

---------------------------------------------------------------------

The orbital elements are published on M.P.E.C. 2015-G03.
The magnitudes graphs are made with Comet for Windows.

---------------------------------------------------------------------

Copyright(C) Seiichi Yoshida (comet@aerith.net). All rights reserved.